GEFSCGP_500_meanwind_006.txt.gz
Wind_Speed
15 15 15 13 11 8 9 11 11 9 9 11 15 19 22 24 26 29 33 36 40 43 44 45 47 48 46 46 47 46 38 32 26 20 19 21 22 23 23 23 24 25 24 21
14 14 14 7 8 10 11 15 18 18 18 17 21 24 27 29 32 34 36 36 36 38 39 40 40 40 43 45 42 37 31 28 26 21 20 21 20 20 21 21 22 23 24 22
10 12 12 8 8 12 15 19 22 23 21 22 25 29 32 34 34 34 34 34 33 33 35 36 37 40 42 41 38 33 28 25 24 22 20 19 19 18 19 18 18 18 20 21
7 8 8 6 6 10 14 19 22 24 24 24 28 32 32 34 34 31 30 30 30 32 34 36 38 39 39 38 36 33 30 27 25 24 21 21 21 17 17 19 20 18 18 19
2 1 3 4 5 8 11 13 20 22 21 22 24 25 22 22 22 22 24 26 26 29 33 36 37 38 39 39 38 35 33 31 30 29 28 27 25 24 24 24 25 24 21 20
3 5 8 11 16 18 15 9 9 13 14 16 16 17 17 16 15 19 22 23 25 28 32 37 40 41 41 42 41 41 40 39 39 38 37 34 32 32 32 30 30 29 27 25
3 2 3 7 11 13 11 9 6 7 11 13 15 16 17 17 19 23 23 24 28 34 38 42 44 44 44 45 47 48 48 47 46 45 44 42 40 39 38 38 36 35 33 31
2 2 4 6 8 10 14 16 17 16 17 17 19 20 22 25 26 26 27 30 34 39 43 45 47 48 49 50 50 50 50 49 49 48 47 46 45 44 44 44 44 43 42 39
6 3 8 10 11 12 16 16 15 16 16 18 21 24 26 29 31 33 34 36 39 43 47 51 53 55 56 57 58 56 55 53 53 53 52 51 50 49 49 49 49 50 50 49
10 9 11 12 13 13 14 14 13 14 15 18 22 27 30 33 35 38 41 44 47 50 52 54 56 59 60 62 63 63 62 60 59 58 58 57 55 54 53 53 53 54 54 54
10 9 9 10 11 12 15 16 16 17 19 22 27 32 36 38 40 43 46 48 50 51 53 55 57 59 61 63 65 67 68 68 67 67 66 65 63 61 59 58 57 57 57 57
11 11 12 12 13 16 18 18 17 19 22 26 31 35 39 40 41 43 45 47 50 52 55 58 59 61 62 64 67 70 72 74 75 74 73 71 69 67 65 64 63 62 61 61
12 12 12 10 12 16 18 17 18 21 25 29 33 36 38 39 41 44 46 48 51 55 58 60 62 64 66 68 70 72 72 71 68 65 62 61 60 59 58 59 61 62 64 65
13 14 13 12 12 14 15 17 20 23 26 29 32 35 37 40 43 45 47 51 55 58 61 64 67 69 69 68 66 63 58 54 51 49 47 45 44 41 37 37 40 45 51 58
16 15 14 15 16 17 18 22 25 27 27 29 30 34 38 41 44 47 50 55 58 62 64 65 64 61 57 53 51 49 49 50 49 46 42 38 34 31 28 28 29 31 34 39
16 15 13 15 17 19 20 25 28 28 27 27 30 35 40 42 44 47 51 56 60 61 59 56 53 51 51 51 53 53 53 52 50 47 43 39 36 35 35 36 35 34 34 35
14 15 15 18 21 21 25 29 31 32 30 33 37 41 44 46 48 52 58 61 59 55 53 52 52 53 54 56 57 58 58 57 55 52 49 46 45 44 45 44 43 40 38 36
15 19 21 24 26 28 30 32 34 35 35 37 40 44 48 51 53 56 59 58 54 52 52 53 54 55 56 58 59 61 61 60 58 56 55 53 53 52 51 49 48 46 44 41
20 22 24 27 29 30 32 35 36 36 38 40 43 47 50 53 54 55 56 54 51 51 53 56 57 58 60 62 63 64 62 60 58 57 56 56 57 56 55 52 50 48 46 44
21 21 23 26 28 31 35 38 38 38 38 42 45 49 52 56 58 59 56 50 48 51 55 57 59 61 63 64 64 62 58 56 54 52 50 50 53 55 55 54 52 49 47 44
18 20 23 26 29 33 37 40 40 39 41 43 48 53 57 58 60 61 53 46 48 52 55 58 60 63 65 64 60 56 53 51 50 47 44 43 43 46 49 50 50 49 48 44
19 23 26 29 31 34 38 40 42 42 43 47 51 54 57 57 60 58 49 45 48 52 54 57 61 64 65 62 57 53 51 50 47 43 39 36 35 36 39 42 44 45 45 44
20 23 27 29 32 35 39 43 45 45 46 48 51 54 56 57 59 55 46 45 48 51 53 57 61 64 64 61 56 52 50 48 43 36 31 28 26 26 28 31 34 36 38 39
19 22 24 27 31 36 40 42 43 43 44 47 51 54 55 57 58 52 45 45 47 50 52 57 61 63 63 60 56 52 49 45 39 31 25 22 21 21 22 24 25 27 30 32
18 21 23 26 30 34 37 40 42 42 44 47 51 53 54 56 58 51 44 45 47 49 53 58 61 63 62 60 56 51 48 45 39 30 24 20 19 19 18 19 20 21 23 25
19 22 25 29 31 33 36 40 43 44 45 49 52 53 53 56 57 50 44 44 46 49 53 57 60 61 61 59 55 51 49 47 42 33 23 17 14 14 14 14 15 16 17 20

GEFSCGP_500_meanwind_012.txt.gz
Wind_Speed
11 12 14 14 13 14 15 17 18 18 18 17 14 13 14 15 18 21 24 27 30 33 36 38 39 39 40 40 39 37 35 33 30 27 25 23 19 18 18 19 21 23 25 26
11 12 12 12 14 14 13 14 17 19 19 19 18 17 17 19 22 25 28 32 35 37 39 39 38 38 38 37 36 35 34 32 30 28 25 23 22 20 19 20 21 23 25 25
11 10 10 10 11 11 10 14 16 19 21 22 23 22 22 24 27 30 32 34 34 34 34 34 35 35 35 35 35 35 36 35 34 31 28 25 24 24 23 23 23 24 25 26
6 6 5 5 5 6 9 13 15 18 19 20 20 22 22 24 26 27 27 27 27 28 29 30 31 32 34 36 38 40 40 40 39 36 33 31 29 29 29 29 29 28 28 29
2 2 3 2 2 1 3 6 7 9 10 11 13 16 18 20 22 23 24 26 27 29 31 33 35 37 39 41 43 45 46 46 44 43 41 39 37 36 35 36 35 35 35 34
3 3 3 4 4 4 4 5 8 9 9 9 11 13 16 19 21 23 25 28 30 33 35 37 39 41 43 44 46 47 47 47 47 46 45 44 43 42 42 41 41 41 41 41
1 2 2 4 6 7 8 8 9 9 9 11 12 14 16 19 21 25 28 31 33 35 37 39 40 41 42 43 43 44 44 45 46 47 47 47 47 47 47 46 46 46 47 47
1 2 4 5 8 10 11 12 13 13 12 12 13 14 18 21 24 28 31 34 36 37 38 39 40 40 40 41 43 44 45 46 47 48 49 49 50 50 51 51 51 51 52 53
3 4 6 8 10 13 15 16 17 17 17 16 16 18 22 25 29 32 34 35 36 38 39 41 42 43 45 47 49 50 50 48 46 44 43 44 46 48 51 54 56 57 57 58
5 7 10 12 14 15 16 17 18 19 20 20 21 24 27 29 31 33 34 36 38 40 41 43 45 47 50 53 53 52 50 46 43 41 40 40 40 42 43 46 51 57 61 63
8 11 13 14 15 15 16 17 17 18 20 23 26 28 28 30 32 33 36 38 41 43 45 47 50 53 55 55 52 49 48 47 47 47 47 47 46 46 46 45 45 47 52 59
11 13 14 14 13 13 14 15 17 20 23 25 28 29 30 31 33 35 38 41 44 46 49 51 54 57 56 52 48 47 48 49 51 52 54 54 55 53 51 50 49 48 48 50
12 14 15 13 12 13 14 17 19 22 25 28 29 29 30 32 34 37 39 42 45 48 50 53 57 56 51 47 46 48 50 52 55 57 58 59 60 60 58 56 53 51 51 50
14 14 14 13 11 11 13 17 20 24 27 29 28 28 29 31 34 37 40 44 46 48 51 55 55 49 44 45 48 50 53 56 59 62 64 64 64 63 62 60 56 53 51 50
16 16 16 15 13 14 16 20 23 27 29 30 29 29 30 33 36 39 43 46 47 49 54 54 48 42 42 45 48 51 55 59 62 65 67 66 66 64 63 59 55 52 50 49
17 19 19 17 15 17 19 22 26 29 31 31 31 31 33 36 40 43 46 47 48 51 53 49 42 41 43 46 49 54 58 62 65 66 66 65 63 61 59 55 52 49 48 48
17 19 19 17 16 17 21 24 27 30 31 33 34 34 36 37 41 45 46 48 50 53 51 45 41 42 44 48 52 57 61 63 64 64 62 60 58 56 53 51 49 47 45 46
17 17 17 16 17 20 23 26 28 30 32 34 35 37 39 41 42 46 48 50 52 53 49 44 42 43 47 51 56 60 62 63 63 61 61 60 57 54 52 49 46 44 43 45
17 17 17 17 19 22 25 27 30 32 33 35 38 40 42 43 43 44 46 48 51 52 48 45 44 46 49 53 57 60 62 62 62 63 63 60 56 51 47 43 42 41 41 42
17 18 20 20 22 24 25 27 30 33 35 38 41 43 45 47 46 46 47 49 53 53 49 46 46 48 51 55 58 61 61 61 62 62 60 56 49 44 38 34 32 33 35 37
18 20 21 22 22 23 24 27 30 34 37 40 42 44 46 48 49 50 50 52 55 53 49 46 47 49 52 56 59 60 59 60 61 61 58 52 45 39 32 27 25 26 30 34
20 22 22 22 21 22 24 28 31 33 36 40 42 45 46 48 49 49 49 51 54 53 49 47 47 49 53 56 58 59 58 58 59 58 54 48 42 34 27 23 20 20 22 28
20 21 21 20 20 22 25 28 31 34 37 41 43 45 47 48 49 49 49 51 53 54 50 47 47 49 52 56 58 58 57 56 57 55 50 45 40 32 25 19 15 13 14 18
19 19 19 20 21 23 26 28 31 35 38 42 44 46 48 48 49 50 50 50 52 53 50 47 46 48 51 55 57 57 56 55 54 52 48 44 38 32 24 18 14 9 8 12
18 17 18 20 22 24 27 29 32 36 39 42 44 46 47 48 49 50 50 50 52 53 52 48 46 47 50 53 55 55 54 52 50 49 47 43 39 33 27 20 15 10 5 4
18 18 20 21 24 25 28 30 33 36 39 42 44 45 47 47 48 49 50 50 52 53 52 48 45 45 48 51 53 54 52 50 48 47 46 42 38 33 29 24 18 13 7 2

GEFSCGP_500_meanwind_018.txt.gz
Wind_Speed
9 7 6 9 9 10 11 10 12 16 16 17 17 18 18 18 18 18 19 19 21 23 26 28 30 31 32 32 32 32 33 34 34 34 35 35 36 35 33 32 31 30 29 28
7 7 9 9 9 9 9 9 11 14 14 15 16 18 18 20 21 21 21 22 23 25 25 26 27 29 30 31 32 34 36 37 38 38 39 39 39 38 37 36 35 34 33 32
8 9 9 8 8 7 7 7 9 11 11 12 14 15 16 18 19 20 21 21 22 23 25 27 28 30 32 34 36 38 39 40 41 42 42 42 42 41 41 39 38 38 37 36
6 5 3 3 4 4 5 7 8 9 9 10 9 12 13 15 17 18 20 22 23 25 27 29 31 34 36 37 38 40 41 42 43 44 44 44 44 44 43 42 42 42 41 41
2 3 3 2 1 2 4 6 7 8 8 10 10 11 14 15 18 20 22 24 26 28 30 32 34 35 37 38 39 40 41 43 44 45 46 47 47 47 47 46 46 45 45 46
3 3 3 1 0 3 5 7 8 10 9 10 13 12 17 18 21 23 25 27 29 31 33 34 35 36 37 38 40 41 43 45 47 49 50 52 52 52 52 51 51 50 50 49
1 2 2 4 5 6 7 7 8 8 8 12 17 15 17 19 22 25 28 30 32 33 34 34 34 36 37 39 41 43 45 46 48 50 52 52 52 51 51 50 50 50 51 52
3 5 5 6 7 9 9 8 7 6 8 13 18 16 17 21 24 27 29 30 30 31 32 34 36 37 39 40 42 43 45 47 48 48 46 44 43 42 42 42 43 44 45 48
4 7 6 8 9 10 11 9 9 8 10 11 17 19 20 23 25 26 26 27 29 31 34 36 37 39 41 42 43 45 48 47 44 40 37 36 37 38 40 41 42 44 45 46
6 7 9 9 10 9 9 9 9 8 10 10 15 23 24 23 24 25 26 29 31 34 36 38 40 41 43 45 47 47 47 44 39 36 35 36 37 39 41 42 44 46 47 49
6 9 10 10 9 9 9 9 9 10 12 14 14 20 23 24 25 27 29 31 33 36 37 39 40 42 44 46 47 46 44 41 38 37 37 39 42 44 46 48 50 51 53 54
7 9 10 10 9 9 9 9 10 12 15 16 18 21 22 24 25 28 30 33 35 36 38 39 41 42 44 45 45 44 42 40 39 39 41 44 46 49 51 54 55 57 58 59
8 10 11 12 12 12 12 11 12 13 14 16 18 22 23 24 27 30 33 35 36 37 38 39 41 43 45 45 44 43 42 41 41 42 45 47 50 53 55 58 59 60 61 61
9 9 8 8 11 14 14 13 13 14 16 17 19 22 26 28 31 34 36 37 38 38 39 41 42 44 45 45 44 43 42 42 43 45 48 50 53 56 58 60 62 62 63 63
10 10 10 11 13 15 16 15 16 16 16 18 21 25 28 31 34 37 39 39 40 40 41 42 43 44 45 45 44 43 42 42 44 47 50 52 54 56 58 60 61 61 61 60
11 11 12 14 15 16 17 17 17 17 18 19 23 26 30 33 36 38 40 41 41 41 41 42 43 44 45 45 44 42 42 43 46 49 51 53 54 56 58 58 57 57 55 52
13 13 14 16 17 17 17 17 18 19 20 22 25 28 32 35 37 40 42 43 43 43 43 43 44 45 46 46 44 43 43 45 48 50 52 53 54 56 57 56 54 52 48 45
14 15 17 18 19 19 18 18 18 19 21 24 26 29 32 36 39 41 42 44 45 45 45 45 46 46 47 47 45 44 45 46 49 51 52 53 55 56 55 53 51 47 42 38
15 17 18 19 20 20 18 17 18 19 21 24 27 30 33 37 41 44 46 47 48 48 48 48 48 48 48 47 46 44 45 47 49 51 52 53 54 54 53 50 47 43 37 33
16 17 18 19 20 19 20 18 19 21 23 25 27 30 34 39 41 44 47 48 49 49 50 49 49 49 48 47 46 44 45 47 49 50 50 52 53 52 50 48 44 38 33 28
16 17 17 19 19 21 20 20 21 23 26 27 29 32 36 41 44 46 47 48 50 50 51 50 50 49 49 48 46 44 45 47 48 49 49 50 51 50 48 46 41 35 30 25
17 18 17 17 19 21 20 21 22 24 26 28 30 33 37 41 45 48 49 50 50 51 51 51 49 49 49 48 46 44 44 46 47 47 48 49 49 47 45 43 39 34 29 24
18 18 19 19 20 21 22 22 23 25 27 29 31 34 38 42 46 49 50 50 50 51 51 50 49 48 48 48 46 44 44 45 45 46 46 47 47 45 43 40 37 33 28 23
22 19 19 20 22 23 23 24 25 26 28 29 32 35 39 43 47 49 50 49 49 51 51 49 48 47 47 47 46 44 43 44 44 45 45 45 45 43 41 39 36 32 27 22
24 22 21 21 23 24 25 26 26 28 29 31 34 37 40 44 48 50 50 49 49 51 50 48 47 47 47 47 45 43 42 43 43 43 43 44 44 42 39 37 34 31 27 22
24 23 22 22 23 24 26 26 27 28 30 32 36 39 42 46 49 50 50 49 50 50 49 47 46 46 46 46 44 42 41 42 42 42 41 42 42 40 37 35 32 30 27 22

GEFSCGP_500_meanwind_024.txt.gz
Wind_Speed
6 5 10 11 5 6 11 12 16 14 13 14 20 22 22 22 21 21 20 20 20 21 22 24 25 27 28 30 31 33 34 35 36 37 38 38 38 39 40 39 38 38 38 39
7 13 9 7 10 10 10 9 13 19 23 18 16 19 17 15 17 18 18 19 21 21 23 24 26 27 29 31 32 34 35 37 38 39 39 39 39 40 41 41 40 40 39 40
8 11 10 9 11 9 10 11 12 17 20 16 15 17 12 10 12 14 16 18 20 21 23 25 28 29 31 33 35 35 36 37 38 39 41 41 41 42 43 43 43 42 41 42
5 4 8 7 6 7 11 12 9 11 16 18 20 21 13 12 11 12 16 19 22 24 26 28 30 32 34 35 36 37 37 38 39 41 43 43 44 44 45 46 46 45 44 44
5 5 2 3 3 6 8 7 10 13 17 23 24 22 10 14 15 17 21 23 25 27 29 30 31 32 33 35 37 38 39 40 41 42 44 45 46 47 48 49 49 49 48 47
3 2 4 3 4 5 3 8 15 18 19 20 15 11 11 20 24 25 26 27 27 28 30 30 31 32 33 35 37 39 40 41 41 43 44 46 47 47 48 49 49 49 47 46
4 5 1 5 10 11 4 10 17 22 24 17 12 7 8 19 25 27 29 29 28 29 29 30 32 33 34 35 36 37 39 40 41 42 43 44 45 45 46 46 45 45 43 42
15 12 6 7 11 12 9 9 14 15 19 18 18 11 13 19 22 23 25 26 27 29 30 31 32 33 33 33 34 36 37 39 40 41 42 43 43 44 44 43 43 42 42 41
9 13 13 14 13 11 8 8 10 8 9 12 18 19 20 20 21 22 24 26 28 30 31 31 32 32 33 34 35 36 38 39 40 41 42 42 43 42 42 41 41 41 42 42
8 6 8 14 13 12 11 10 8 4 7 5 11 19 20 20 22 24 26 28 30 31 32 33 33 33 34 36 37 38 39 40 40 41 42 42 42 41 41 41 41 41 43 44
9 7 7 8 12 12 11 10 8 6 6 5 7 20 20 22 23 24 26 29 30 32 33 33 34 35 36 37 39 40 41 41 41 42 42 42 42 42 41 42 42 43 44 45
10 7 6 10 11 7 10 11 10 8 7 6 7 21 22 23 24 26 27 29 31 33 34 35 36 36 37 38 40 41 42 43 43 43 43 44 43 42 42 42 43 44 45 47
11 9 8 15 13 9 9 14 13 11 8 8 8 20 25 26 27 28 30 32 33 35 36 37 38 38 39 40 41 43 43 44 44 45 45 45 44 42 42 43 44 45 46 48
12 11 8 8 12 12 12 13 14 14 11 12 15 20 24 25 26 27 29 32 34 37 39 40 40 40 41 41 43 43 44 44 45 45 45 45 43 42 43 44 45 46 48 49
12 10 10 11 11 13 14 15 15 16 16 16 18 21 24 25 27 28 30 33 36 39 40 42 42 42 42 43 44 44 44 44 45 45 45 45 43 43 43 44 46 47 48 49
14 12 12 11 10 13 14 16 18 19 19 19 19 21 25 26 28 29 31 35 38 40 41 43 43 43 44 45 45 45 45 46 47 47 46 45 44 43 43 45 46 48 49 50
14 14 12 11 10 12 15 17 19 22 21 21 22 23 25 26 28 30 31 35 39 41 42 44 45 45 46 46 47 47 47 48 48 48 47 45 44 43 44 46 47 48 49 49
14 14 14 12 10 9 15 19 20 21 21 21 23 25 26 28 31 33 34 37 41 43 44 45 46 46 47 47 48 48 49 50 50 49 47 45 44 43 45 46 48 49 48 47
19 17 16 15 12 10 15 22 19 20 21 20 22 24 26 28 31 36 38 41 44 45 45 45 46 47 47 48 48 49 50 50 50 49 47 44 43 43 44 46 47 47 46 45
22 20 19 17 16 14 14 19 20 22 25 22 24 25 28 29 31 34 38 40 43 44 44 44 45 47 48 49 50 51 51 51 50 48 45 43 43 43 44 46 46 45 44 43
23 23 21 22 20 18 21 20 22 24 26 26 27 28 29 31 32 34 37 40 42 44 44 44 46 47 49 50 50 51 51 51 50 47 44 42 43 43 44 44 44 43 42 41
19 19 21 22 21 22 26 25 25 25 25 26 27 28 30 31 33 35 38 41 43 44 44 44 45 47 49 50 51 51 51 50 49 46 43 42 42 43 43 43 42 40 39 38
20 22 23 21 23 27 29 27 27 26 26 26 27 29 30 32 34 36 39 41 43 44 43 44 45 47 49 50 51 51 51 50 48 45 43 41 42 42 42 41 40 39 37 37
21 25 25 22 20 25 27 27 27 27 27 27 29 30 31 33 36 38 40 41 43 44 43 43 45 46 48 50 51 51 51 50 48 44 42 41 41 41 41 40 38 36 35 35
22 23 25 24 23 24 25 26 27 27 27 28 30 31 33 35 37 39 41 42 43 43 43 44 45 47 48 50 51 51 51 49 47 44 41 41 41 40 39 38 36 34 33 32
25 25 25 25 25 26 26 26 27 27 27 29 30 32 34 37 39 40 41 42 42 43 43 44 46 47 48 49 50 51 50 49 47 43 41 40 40 40 38 36 34 33 31 30

GEFSCGP_500_meanwind_030.txt.gz
Wind_Speed
3 2 3 4 4 1 5 8 9 10 11 12 13 14 16 16 13 10 10 11 11 13 15 17 19 21 23 26 28 31 33 34 36 37 37 38 37 37 37 37 36 35 35 35
7 5 2 2 3 1 6 10 11 13 13 14 14 14 12 8 7 5 6 6 8 10 13 15 18 21 23 25 28 30 31 33 34 35 35 36 35 35 35 36 35 35 34 35
8 6 3 2 1 2 6 10 12 14 15 17 19 20 17 8 4 2 3 3 6 9 12 14 17 19 21 23 25 26 28 30 31 32 33 34 34 35 34 35 35 34 33 33
7 6 6 4 3 5 8 10 12 14 16 20 20 19 12 6 6 5 5 4 6 9 12 14 17 19 21 23 24 26 27 29 30 31 32 33 33 34 34 34 34 35 35 34
7 6 6 7 9 10 10 11 12 13 14 17 16 13 7 6 5 6 6 7 9 11 14 17 19 21 23 24 25 26 27 28 30 31 32 33 34 34 35 35 35 36 36 36
8 6 6 7 8 8 8 9 10 10 11 14 13 12 9 6 7 7 8 10 13 16 19 21 23 24 26 27 27 28 29 29 31 32 33 35 35 36 37 37 37 37 37 37
7 6 5 4 4 5 6 8 8 8 9 10 12 13 11 7 7 9 11 14 17 21 24 26 28 29 30 31 31 31 31 32 33 34 35 36 37 37 38 38 38 38 38 38
8 6 5 5 5 4 6 9 9 8 9 8 9 9 9 7 8 12 15 18 21 24 27 29 31 33 34 35 35 35 35 35 35 36 36 37 38 38 39 39 39 39 39 39
9 7 6 6 7 7 9 9 8 8 8 7 8 9 10 9 11 15 19 22 24 26 29 32 34 35 37 37 37 37 37 37 37 37 37 38 38 38 38 39 39 40 40 41
10 8 8 8 10 11 12 10 7 5 7 8 9 10 13 13 16 19 22 23 25 27 30 33 35 37 38 38 38 38 38 38 38 38 38 38 38 38 39 40 40 41 42 42
9 9 8 9 9 9 9 8 7 6 7 9 12 15 16 17 18 20 22 24 26 28 30 33 36 37 38 39 39 39 39 38 38 38 38 39 39 40 41 42 42 43 43 42
8 9 9 8 7 7 8 9 8 9 10 12 16 19 18 19 20 22 24 25 27 29 31 33 36 37 38 39 39 38 38 38 39 39 39 40 41 42 43 44 44 43 43 42
9 10 11 10 8 8 8 9 11 12 13 15 17 20 20 20 22 23 25 26 27 28 31 34 37 38 39 38 37 38 38 39 40 40 41 42 43 44 45 45 44 43 42 41
9 10 10 10 11 11 9 9 11 13 14 15 16 18 19 20 21 23 25 26 27 30 33 36 38 38 38 38 38 39 40 41 42 43 44 44 45 45 45 45 44 42 41 39
7 8 9 10 11 12 11 11 12 14 15 16 17 18 19 21 22 24 26 27 29 32 34 36 37 38 39 39 40 41 42 43 44 45 46 46 46 47 46 45 43 41 39 39
6 5 5 8 10 11 11 12 14 15 16 17 17 19 21 23 24 25 27 28 30 32 34 35 37 38 40 40 41 42 43 45 46 47 47 47 47 47 46 44 41 40 39 39
9 7 7 8 9 9 11 12 14 14 15 16 18 20 23 24 25 26 27 28 30 32 34 36 38 39 40 41 42 43 45 46 47 48 49 49 49 47 45 43 41 40 40 39
8 8 9 10 9 10 10 13 14 16 17 17 19 21 24 25 25 26 27 29 31 33 35 37 39 40 40 42 43 44 46 47 48 49 49 50 49 48 45 43 42 41 40 40
9 10 12 13 12 11 13 14 15 17 18 19 21 24 26 26 27 27 29 31 32 35 37 39 40 40 41 42 44 45 47 47 48 49 49 50 49 47 45 43 41 40 40 40
14 15 15 15 14 13 11 12 16 18 20 21 23 24 26 27 29 29 31 32 34 36 38 40 40 41 42 43 44 45 47 47 48 48 49 49 49 47 45 43 41 40 40 40
19 19 19 19 18 18 17 19 19 21 22 23 23 24 26 27 28 30 32 33 35 37 38 40 41 42 43 44 44 46 46 47 47 48 49 49 49 48 45 43 41 40 40 39
21 21 22 22 22 23 22 23 23 24 24 24 24 24 26 27 29 30 32 35 37 38 39 40 41 42 43 45 45 46 46 46 47 48 49 49 49 48 45 43 41 40 40 38
22 23 23 22 22 23 23 24 25 26 26 25 25 25 26 27 29 31 33 36 39 40 40 41 41 43 44 45 45 45 46 46 47 48 49 49 49 47 45 42 41 40 39 38
20 24 25 24 23 24 24 24 26 27 27 26 26 26 27 28 30 32 35 38 40 41 42 42 43 44 45 45 45 45 45 46 47 47 48 48 48 46 44 42 41 40 39 37
20 24 26 25 24 24 23 24 26 27 28 28 28 29 30 31 32 34 36 39 41 42 43 43 44 45 46 46 45 46 46 46 47 47 47 48 47 45 43 41 40 39 37 36
22 26 28 27 26 26 25 25 26 28 29 30 32 33 34 36 37 38 39 41 42 43 44 44 46 47 48 48 47 47 46 46 46 46 46 46 46 44 42 40 39 38 36 35

GEFSCGP_500_meanwind_036.txt.gz
Wind_Speed
7 4 4 4 4 4 5 6 7 7 7 9 11 12 14 16 17 17 16 14 13 12 12 13 14 15 17 19 21 22 24 26 27 28 29 29 29 30 30 30 30 29 29 30
5 4 4 3 3 4 5 4 4 5 6 7 7 8 11 11 11 11 10 9 8 8 9 11 13 15 17 19 21 23 25 26 27 28 28 29 29 29 29 29 29 29 29 29
5 4 3 1 1 4 4 3 3 5 4 4 6 5 7 5 3 4 4 3 3 5 7 10 13 16 18 20 21 23 24 26 27 28 29 29 30 30 30 30 30 30 30 30
5 4 2 2 2 3 3 3 3 4 4 5 4 4 2 2 3 3 2 1 2 4 7 10 12 15 16 18 20 21 23 24 25 26 27 28 29 29 30 31 31 31 31 30
7 5 3 2 4 5 5 4 4 3 4 4 4 3 2 2 3 3 2 1 3 5 7 9 12 14 16 17 18 20 21 22 23 24 25 26 26 27 28 29 30 30 30 30
7 5 4 4 6 6 6 5 3 2 2 3 4 4 3 3 2 1 1 2 4 5 7 10 12 14 15 17 19 20 22 22 23 24 25 25 25 26 27 27 28 29 29 30
7 6 6 6 6 7 7 7 5 3 3 2 1 2 2 1 1 2 3 4 5 7 9 11 12 14 16 18 20 22 23 24 24 25 26 26 26 26 27 27 28 29 30 31
7 7 6 6 6 7 8 9 8 6 4 4 4 3 4 4 5 6 7 7 8 9 11 12 14 15 17 19 22 23 25 26 26 27 27 27 27 27 28 29 30 31 32 33
7 7 7 7 7 8 9 9 9 7 5 5 5 5 6 8 9 10 10 10 10 11 12 13 15 17 19 21 24 26 27 28 29 29 29 30 30 30 31 32 32 33 34 35
8 8 8 9 9 8 9 10 9 8 6 5 5 6 8 10 12 12 12 12 12 13 14 15 17 19 22 24 26 29 30 30 31 31 32 33 33 34 34 35 36 37 38 38
10 9 9 10 10 10 10 10 11 10 9 7 6 6 9 10 11 12 13 13 14 15 16 18 20 22 24 26 29 30 31 32 32 33 34 35 36 36 37 38 39 39 40 40
11 10 10 11 11 11 11 11 12 11 9 8 8 7 9 11 12 13 14 15 17 18 19 20 22 24 26 28 30 31 32 33 34 35 36 37 38 38 39 40 41 42 42 42
12 11 11 11 12 13 13 13 13 12 11 10 11 11 11 12 13 14 16 17 19 20 21 22 24 25 27 28 30 32 33 34 35 36 37 38 39 40 41 42 43 44 44 43
12 11 11 12 14 15 15 15 15 14 13 13 13 14 14 15 16 17 19 21 22 23 23 24 25 26 28 29 31 33 35 36 37 38 39 40 41 42 43 44 45 46 45 45
11 11 11 12 13 14 13 14 15 15 14 15 15 16 17 18 19 20 22 23 24 23 24 24 25 27 29 31 33 35 37 37 39 40 41 41 42 43 44 45 46 47 46 46
12 12 12 12 14 14 13 13 15 15 15 16 17 17 19 20 21 23 24 25 24 24 24 25 27 29 31 34 36 38 39 39 40 41 42 42 43 44 45 46 47 47 47 47
12 12 11 11 13 13 13 12 13 14 15 16 16 18 21 23 24 25 25 25 25 25 26 27 29 31 34 36 38 40 40 41 41 42 42 43 45 46 47 48 48 48 47 47
12 12 11 11 12 11 10 12 13 13 14 15 16 19 22 24 25 26 26 25 25 26 27 29 31 34 36 38 40 41 41 42 42 43 43 45 46 47 48 49 49 48 48 47
13 13 13 13 12 9 8 12 13 13 13 15 17 20 22 24 25 25 25 26 27 28 29 31 33 36 38 40 41 42 42 43 43 44 45 46 47 48 49 49 49 48 47 46
16 16 16 16 14 9 11 14 14 14 14 17 19 21 22 24 25 25 26 27 28 29 31 33 35 38 40 41 42 42 43 43 44 45 47 48 49 50 49 49 49 48 47 45
18 18 19 18 16 15 16 17 17 18 19 20 20 22 23 25 26 26 27 28 30 31 33 35 38 40 41 42 43 43 44 44 45 47 49 50 51 51 50 49 49 47 45 44
21 21 21 21 20 21 21 21 21 22 22 23 24 25 25 26 27 28 29 30 32 34 36 38 40 41 43 43 43 45 46 47 49 50 52 52 52 51 50 49 48 46 44 43
24 25 26 25 24 24 25 26 25 26 26 27 28 28 28 28 29 30 31 33 34 36 38 40 41 42 43 43 45 46 48 50 52 53 54 54 54 52 50 48 46 44 43 41
24 26 29 29 27 28 28 29 29 29 30 30 31 31 32 32 32 32 34 35 36 38 39 40 41 42 43 44 46 48 50 52 54 55 55 56 54 52 49 46 44 42 41 40
25 29 31 31 30 31 30 31 31 31 32 32 33 34 34 34 34 35 36 37 38 39 40 40 42 43 45 46 48 50 52 54 56 56 57 56 54 50 47 45 43 41 40 39
27 31 33 33 33 34 33 32 33 33 33 34 36 36 36 37 37 38 38 38 39 40 40 41 43 45 47 48 50 52 55 57 57 58 57 55 51 48 45 43 42 41 40 38

GEFSCGP_500_meanwind_042.txt.gz
Wind_Speed
14 12 9 7 6 5 6 7 9 10 10 10 11 13 14 15 16 15 16 15 14 12 10 9 6 5 6 7 8 10 12 13 15 16 17 18 19 19 19 19 20 20 21 21
12 10 9 7 6 7 7 8 10 11 11 11 13 13 15 13 12 12 11 9 9 7 6 4 2 3 5 7 9 11 13 15 16 17 18 19 20 20 20 20 19 19 20 21
8 8 8 7 7 7 8 8 10 11 10 11 12 12 12 9 5 4 4 3 2 0 1 1 2 4 7 9 12 13 15 16 18 18 18 19 19 19 19 19 19 18 18 19
8 8 7 6 7 7 8 8 9 9 9 11 11 11 11 8 5 4 3 3 3 3 3 3 4 6 9 11 13 15 16 17 17 18 18 18 18 18 18 18 17 17 17 17
8 8 7 7 7 8 8 8 8 8 8 9 10 9 9 6 6 5 5 5 4 4 4 5 7 9 11 13 15 16 16 17 17 17 17 17 18 18 18 18 17 17 17 17
9 8 7 7 8 8 8 8 8 8 7 9 8 7 7 5 5 4 4 5 5 6 7 8 10 11 13 15 16 16 17 17 17 18 18 18 18 19 19 19 19 18 18 18
9 9 8 8 8 8 8 7 8 8 7 10 8 6 6 5 5 5 5 6 7 8 10 11 12 13 15 16 17 17 18 18 18 18 18 18 19 20 20 20 20 20 20 20
8 9 10 9 8 8 8 7 5 4 6 9 9 8 8 7 7 7 8 9 9 10 12 13 14 15 17 17 18 18 19 19 19 19 19 20 21 22 22 22 22 23 23 24
8 10 12 10 9 9 9 7 7 6 6 6 8 10 10 10 10 10 11 11 11 12 14 15 16 17 18 18 19 19 20 20 20 21 21 22 23 23 24 24 25 25 26 27
11 10 12 12 11 10 9 9 7 5 5 5 9 10 12 13 13 13 13 13 13 14 15 16 17 18 18 19 19 20 20 20 21 22 23 24 25 25 26 27 27 28 28 29
12 10 12 13 12 11 11 10 8 7 7 4 6 10 14 13 14 14 14 14 14 15 16 16 17 17 18 19 19 20 20 21 22 23 25 26 27 27 28 29 29 30 31 32
12 11 11 13 14 13 11 11 10 8 10 9 7 10 15 15 15 14 14 14 14 14 15 16 17 17 18 19 19 20 21 22 24 25 27 28 28 29 30 31 32 33 34 36
13 12 9 10 13 13 13 13 12 12 12 12 10 11 17 16 15 14 14 14 14 15 16 16 17 17 18 18 19 20 22 24 26 27 28 29 30 31 33 33 34 36 37 38
12 12 10 9 11 13 13 13 14 14 13 14 14 15 17 17 16 15 15 15 16 16 17 17 17 18 18 19 20 22 24 26 28 29 30 31 32 33 34 35 37 39 40 42
13 12 12 12 12 11 11 13 15 15 15 15 15 16 17 18 17 17 16 16 16 17 17 17 17 18 19 20 22 24 26 28 29 30 31 32 34 35 36 38 40 42 43 45
13 12 12 12 12 13 12 12 13 13 14 14 15 15 17 18 17 17 16 16 17 17 17 18 18 19 21 22 24 27 28 29 30 31 32 33 35 36 38 41 43 45 46 47
13 13 12 10 12 13 11 12 12 12 12 13 13 15 17 17 17 17 17 17 17 18 18 19 20 21 23 25 27 29 30 31 31 32 33 34 36 37 40 43 45 47 47 47
13 13 13 11 13 12 11 15 14 13 13 15 15 16 17 18 18 19 19 19 19 19 20 21 22 24 26 27 29 31 31 32 32 33 35 36 37 40 43 46 48 49 49 48
16 15 15 14 13 14 14 18 17 15 14 17 18 18 19 20 20 21 21 21 21 21 22 23 24 26 28 30 32 33 33 32 33 34 36 37 40 42 45 48 50 50 50 48
19 18 18 18 17 16 16 21 20 18 16 19 20 20 21 22 21 22 24 23 23 23 25 26 27 29 31 33 34 34 34 34 35 37 38 40 42 45 48 50 51 51 49 46
20 20 20 20 20 18 24 24 22 21 21 22 22 23 23 23 23 24 26 26 26 26 28 29 31 33 34 35 36 37 36 36 38 39 40 42 45 47 49 51 52 51 48 45
21 21 23 23 22 22 29 26 25 25 24 24 24 25 25 25 25 26 28 29 29 30 31 33 34 35 37 38 39 40 40 40 40 41 43 46 48 49 51 52 51 50 47 43
23 24 25 25 25 29 28 28 27 26 26 26 26 27 28 27 28 29 30 31 31 33 34 35 37 38 40 41 42 43 43 44 43 43 45 47 49 51 52 52 51 49 46 42
26 25 27 27 28 30 30 30 30 30 29 29 29 30 30 30 30 31 32 33 34 35 36 38 39 40 42 44 46 47 47 46 46 46 48 50 52 52 51 51 50 48 45 41
28 27 28 29 31 31 32 31 32 32 32 32 32 32 33 33 33 34 35 35 36 38 39 40 41 42 45 48 50 51 50 49 48 48 50 51 52 52 51 50 48 46 43 40
28 28 29 30 31 32 32 33 33 34 34 34 34 34 34 35 35 36 37 38 39 40 42 42 44 45 47 50 51 52 54 53 51 51 52 52 53 52 51 49 47 44 41 39

GEFSCGP_500_meanwind_048.txt.gz
Wind_Speed
12 14 14 12 12 11 11 14 15 13 9 9 11 14 15 13 11 11 11 12 11 12 11 10 8 7 6 5 4 4 5 6 8 10 10 11 12 13 14 15 16 17 17 17
14 14 13 13 10 9 12 14 14 12 11 11 11 9 12 13 11 8 8 8 8 9 8 8 6 4 2 1 2 4 5 6 8 9 10 12 13 14 15 16 16 17 17 17
10 11 12 13 11 11 15 13 13 13 12 12 12 10 13 12 11 9 5 2 3 4 3 3 2 2 0 1 3 4 6 7 9 10 11 13 14 15 15 16 16 17 17 17
7 9 13 12 12 11 16 15 11 10 12 12 11 11 14 12 9 8 8 6 5 5 4 3 3 1 1 2 5 6 8 9 10 12 13 15 16 16 17 17 17 18 18 18
8 11 12 12 13 11 11 11 9 11 12 12 9 9 11 10 8 8 8 8 7 7 5 3 2 1 3 5 7 8 10 11 12 14 15 17 17 18 18 19 19 19 19 18
9 10 10 10 12 12 8 7 13 14 11 9 8 8 9 10 10 7 6 5 5 4 3 2 3 4 6 7 9 10 11 12 14 15 17 18 19 20 21 22 22 22 21 20
15 11 10 10 11 16 11 8 15 20 16 12 10 6 10 11 9 7 5 4 4 4 4 5 6 7 8 9 11 12 12 14 15 17 18 19 20 21 22 23 23 23 23 23
16 15 9 9 13 16 12 7 11 13 16 12 6 8 13 11 10 9 7 6 6 6 6 7 8 9 10 11 12 13 13 14 16 17 19 20 21 21 22 22 23 23 23 24
12 14 14 15 16 14 9 8 9 7 9 10 3 7 11 9 10 11 11 9 8 8 9 9 10 10 11 12 13 13 14 15 16 18 19 20 21 22 22 23 23 23 24 24
13 13 11 16 15 11 10 9 8 5 6 11 9 7 11 11 14 14 13 12 10 10 11 12 12 12 13 13 14 14 15 16 17 18 19 20 21 22 22 23 23 24 24 25
15 13 10 14 12 9 12 11 9 8 8 8 14 13 9 13 17 18 18 15 14 14 14 14 14 15 15 15 15 15 16 17 18 19 21 22 22 22 22 23 24 24 25 26
16 14 12 14 13 12 9 9 11 10 11 9 9 14 11 13 19 20 19 18 17 17 17 18 17 16 17 17 16 16 17 18 19 20 22 23 24 24 24 24 25 26 27 28
18 16 14 16 17 12 5 6 7 9 9 8 9 16 15 16 18 19 19 19 19 19 19 20 19 18 18 18 18 18 18 19 20 22 23 25 25 25 26 26 27 28 30 31
17 16 15 15 15 12 8 7 8 10 11 11 13 15 14 15 18 21 22 21 20 20 20 20 20 20 20 20 20 20 20 21 22 24 25 27 27 28 28 28 29 30 31 33
17 15 13 13 12 12 11 11 11 13 14 13 14 15 16 18 21 23 23 23 23 21 21 20 20 20 21 21 21 22 22 23 24 26 27 28 29 30 30 30 32 33 33 35
19 16 14 11 9 12 13 13 13 13 13 12 12 14 17 19 21 23 23 22 22 22 22 22 21 21 21 22 22 23 24 25 26 28 29 30 31 32 32 33 34 34 35 37
19 19 15 11 12 13 13 16 15 13 13 11 13 16 18 20 21 21 21 22 22 22 22 22 22 22 22 23 23 24 25 26 28 29 30 31 32 33 35 36 37 38 39 40
18 17 16 14 13 15 16 15 12 12 12 13 14 15 17 19 20 20 21 21 21 22 23 24 24 24 24 24 25 26 27 29 30 31 32 33 34 36 38 40 41 41 41 43
17 16 16 14 15 18 20 21 19 17 16 14 14 16 17 17 18 21 22 23 24 24 25 26 27 27 27 27 28 28 30 31 32 33 34 35 36 38 41 43 44 43 44 45
18 16 16 15 15 18 24 23 18 17 20 17 17 17 17 19 21 23 25 27 29 30 30 29 29 29 30 30 30 31 32 34 35 37 38 38 40 42 45 46 46 46 46 47
19 18 18 16 15 19 26 26 21 18 19 16 19 23 26 27 27 27 27 29 31 32 32 32 32 31 32 33 33 34 35 37 39 40 41 43 45 46 47 48 48 49 49 49
19 20 21 21 22 26 25 26 24 22 22 24 26 28 30 30 30 30 31 31 32 33 33 34 34 34 34 35 36 37 38 40 42 43 44 46 48 49 49 50 49 50 51 50
22 23 24 26 29 29 30 29 26 26 28 30 31 31 32 32 32 32 33 33 33 34 35 35 36 37 38 39 39 40 42 43 45 46 48 50 51 51 52 52 52 53 54 53
26 27 28 29 30 33 33 32 32 32 33 34 33 33 33 33 34 34 35 35 36 36 37 37 38 38 40 41 42 43 44 46 47 49 50 52 53 54 53 53 54 54 54 54
30 29 26 29 34 36 36 36 36 36 36 36 36 35 35 36 36 36 37 37 38 39 39 40 40 41 43 44 45 46 47 49 50 51 52 53 54 54 55 55 55 56 56 56
33 33 32 34 35 37 38 37 36 38 38 38 37 37 37 37 38 38 39 39 40 41 41 42 42 43 45 46 47 49 50 51 52 53 55 56 56 56 57 57 57 57 57 55

GEFSCGP_500_meanwind_054.txt.gz
Wind_Speed
4 5 10 13 15 17 19 18 18 18 17 16 16 15 14 14 11 9 4 1 5 8 7 8 7 6 5 4 3 2 2 1 1 2 2 2 3 4 5 6 7 8 9 9
6 6 10 13 14 15 17 17 18 18 18 16 16 14 12 12 11 10 6 3 5 7 7 8 7 6 5 4 3 2 2 1 0 1 2 2 3 4 6 7 8 9 10 11
7 8 10 12 12 15 15 16 18 19 17 15 14 13 11 10 10 10 9 8 7 8 9 10 8 7 6 5 4 3 2 1 0 1 2 3 4 5 6 8 9 10 11 11
7 8 9 11 12 13 14 15 16 17 16 15 13 10 11 10 9 11 11 10 9 9 9 9 8 8 6 4 3 2 1 1 1 2 3 4 5 6 7 8 10 11 12 13
8 9 10 11 12 11 13 14 14 14 14 13 10 9 10 10 9 11 11 11 10 9 8 8 8 6 5 3 3 2 1 1 2 3 4 4 6 7 8 9 11 12 13 14
9 10 11 10 9 10 12 13 12 12 12 10 7 7 8 8 8 8 9 9 9 9 8 7 6 5 3 2 2 2 2 2 3 3 4 5 7 8 9 11 12 12 13 14
9 10 10 10 8 9 12 12 12 11 10 9 5 5 5 6 6 6 6 6 6 6 5 5 4 3 2 2 3 3 3 3 4 4 5 7 8 9 11 12 12 13 14 15
13 11 11 12 10 10 11 11 11 11 11 11 7 4 2 4 4 4 4 3 3 3 2 2 1 2 2 3 4 4 4 4 5 5 7 8 9 11 12 13 13 14 14 15
15 12 11 12 12 13 13 12 12 12 12 11 7 4 2 2 2 2 2 2 2 2 2 2 2 2 3 4 4 5 5 6 6 7 9 10 11 12 13 14 14 15 15 16
15 12 12 14 14 15 17 15 12 11 13 12 9 6 5 4 3 1 1 1 1 1 2 3 4 4 5 5 6 6 7 7 8 9 11 12 13 14 15 16 17 17 18 19
13 12 13 16 17 17 18 17 13 12 13 13 12 10 9 8 7 5 3 2 1 1 2 4 4 5 6 6 7 7 8 9 10 11 13 14 15 16 18 18 19 20 21 22
11 13 15 16 16 16 16 16 15 13 12 13 14 13 11 11 9 8 6 5 4 4 4 4 4 5 6 7 8 9 10 11 13 14 16 17 18 19 20 21 21 22 23 24
11 13 15 15 15 16 15 15 15 15 13 12 13 14 12 12 11 10 10 9 8 8 8 7 7 7 7 8 10 11 13 14 15 17 19 20 21 22 22 23 23 24 24 25
14 16 16 16 14 13 13 13 13 13 13 12 13 15 15 14 14 14 12 12 12 11 10 10 10 10 10 11 12 13 15 17 18 20 21 22 23 24 25 25 25 26 27 28
18 17 16 15 15 14 14 13 12 13 14 15 14 15 15 15 16 14 13 14 14 13 11 11 11 12 13 14 15 16 17 19 20 22 24 25 26 27 27 28 28 28 29 30
21 19 17 14 15 17 15 15 15 16 16 17 17 18 16 16 16 15 15 14 15 15 13 12 12 13 15 16 17 19 20 21 23 24 26 27 28 29 30 30 30 31 31 32
21 21 20 17 16 17 18 18 19 20 21 22 22 21 19 16 17 17 17 17 16 16 15 14 14 16 17 19 20 21 23 24 26 27 28 30 31 31 32 32 32 33 34 35
22 23 22 20 18 18 17 20 22 22 22 23 26 26 22 20 18 17 17 17 17 17 18 18 19 20 21 22 24 25 26 27 28 30 31 32 33 33 34 34 35 35 36 37
24 24 23 21 20 19 19 21 22 22 22 22 21 22 21 20 19 17 16 18 18 21 23 24 25 25 26 27 28 28 29 30 31 33 34 35 35 36 36 37 37 38 39 40
24 25 25 24 24 22 21 21 21 22 21 21 20 21 22 22 20 17 17 20 23 25 26 27 28 29 30 31 31 31 32 32 33 35 36 37 38 38 39 39 40 41 42 43
25 26 26 26 26 25 22 21 21 21 19 19 20 20 20 20 21 20 20 22 25 27 28 30 31 32 32 33 34 34 35 34 35 37 38 39 40 41 41 42 43 44 45 46
24 25 25 26 26 25 24 24 21 17 18 19 18 18 19 20 20 21 23 25 27 29 31 32 33 34 35 35 36 37 37 38 39 39 40 41 43 44 44 46 47 47 48 48
26 26 26 26 25 24 24 24 21 19 20 19 19 20 20 21 21 23 25 27 29 30 32 33 34 36 37 38 38 39 40 41 42 42 43 44 46 47 48 49 50 50 50 50
27 27 27 26 26 26 25 25 23 20 20 22 23 23 23 23 25 26 28 29 30 32 33 34 36 37 38 39 40 41 42 43 44 45 46 47 49 49 50 51 52 53 53 53
28 29 29 29 28 28 28 25 25 24 23 24 25 26 27 28 28 29 30 31 32 33 34 36 37 38 39 40 41 42 43 44 46 47 49 50 51 52 53 54 55 55 56 57
29 29 29 30 29 29 29 27 26 25 25 25 27 29 31 32 32 33 33 34 34 35 36 37 38 39 40 41 42 43 45 46 48 49 51 52 54 55 56 57 58 59 59 59

GEFSCGP_500_meanwind_060.txt.gz
Wind_Speed
6 7 10 11 13 13 13 13 13 14 15 16 17 17 16 14 11 10 7 3 6 10 12 13 16 17 15 14 12 10 8 7 6 4 3 3 3 3 3 4 4 5 5 6
6 7 9 11 12 12 13 13 13 13 15 15 15 15 14 11 10 9 7 2 5 8 10 13 15 15 14 13 11 9 8 7 6 4 3 2 3 3 4 4 4 5 5 6
7 8 9 11 12 12 12 13 13 13 14 14 14 14 13 10 9 8 6 5 5 7 10 12 13 15 14 12 11 10 8 7 6 4 3 3 3 3 3 4 4 5 6 6
9 8 9 10 11 12 12 13 13 13 13 13 13 13 12 9 7 6 6 6 6 8 9 11 14 14 13 12 10 9 8 6 5 4 4 4 3 3 3 3 4 5 5 6
10 9 9 9 10 12 13 13 13 13 13 12 12 12 10 8 7 6 5 5 6 6 8 10 13 12 12 11 9 8 7 6 5 5 5 4 4 4 4 4 4 5 6 6
10 9 10 10 10 12 13 13 12 12 12 11 11 10 9 7 6 5 4 4 4 4 6 8 10 10 10 9 8 7 6 6 6 6 5 5 5 4 4 4 5 5 6 6
10 10 12 12 12 13 13 13 13 12 12 11 10 9 8 6 6 5 3 2 2 3 5 6 7 8 8 7 7 7 7 7 7 7 6 6 5 5 5 5 5 6 7 7
12 12 14 14 15 15 15 14 15 15 14 12 9 8 7 6 6 6 4 3 1 2 4 5 6 7 7 7 7 8 8 8 8 8 7 6 6 6 6 7 7 8 9 10
15 14 15 16 16 16 16 15 16 16 15 12 9 7 7 7 7 7 6 5 4 4 5 6 6 7 7 8 8 9 9 9 9 9 8 8 8 8 8 9 9 10 11 13
16 16 14 15 16 17 17 17 17 17 17 14 9 7 8 9 9 8 8 7 7 7 7 8 8 9 9 9 10 10 11 11 11 11 11 10 11 10 10 11 12 13 14 15
17 17 16 16 17 18 18 18 18 18 17 16 12 8 8 9 10 9 9 8 8 9 10 10 11 11 11 11 11 12 12 12 13 13 13 13 13 13 13 13 15 16 17 18
15 16 15 15 16 16 17 17 18 18 17 15 13 10 11 11 12 11 10 9 9 9 10 11 12 13 13 13 14 14 14 14 15 15 16 16 16 16 16 16 17 19 20 21
14 13 13 13 14 15 16 17 17 17 16 15 14 12 12 13 12 11 11 11 11 10 11 12 13 14 15 15 15 15 16 16 17 17 18 18 19 19 19 19 21 22 23 24
14 13 13 13 14 15 15 16 17 18 17 16 15 13 13 13 13 13 13 13 13 13 12 13 13 14 15 16 16 16 17 18 19 19 19 20 21 21 22 23 24 25 26 27
15 15 14 14 15 16 16 16 18 19 18 18 16 16 15 15 15 14 14 14 14 15 14 14 14 14 15 16 16 17 17 18 19 20 21 22 23 23 24 25 27 28 29 29
17 16 16 16 17 18 17 17 18 18 18 19 19 19 18 17 17 17 17 17 17 17 16 16 15 15 16 16 16 17 18 20 20 21 23 24 25 26 27 28 29 30 31 32
17 17 17 18 19 20 19 18 19 19 19 19 20 20 19 19 19 20 20 19 19 19 19 19 19 18 18 18 18 20 21 23 24 25 26 27 28 29 30 31 32 33 34 35
18 19 20 20 21 22 20 19 20 20 20 20 21 21 21 21 21 21 21 21 23 21 20 20 20 20 20 21 22 23 24 25 26 28 28 29 31 32 34 34 35 36 37 38
19 19 21 21 22 22 20 20 21 21 21 21 21 21 20 21 22 21 21 22 24 23 23 22 22 22 22 23 24 26 27 29 30 31 31 32 34 35 37 38 39 40 41 41
20 21 22 22 23 22 20 20 20 21 21 21 21 20 20 20 20 19 20 21 21 23 24 23 24 24 25 26 27 28 30 31 32 34 35 35 37 38 40 41 43 44 44 45
21 22 22 21 21 20 20 20 20 21 20 20 21 20 20 20 18 18 18 18 19 20 22 23 25 25 27 28 30 31 32 34 35 36 37 38 40 41 43 45 46 47 49 50
22 21 21 21 21 21 20 20 20 21 21 21 21 20 20 20 18 17 18 18 18 19 22 24 26 27 29 30 32 33 35 36 38 39 41 42 43 45 46 48 49 50 52 53
22 22 22 21 21 21 20 20 20 20 21 21 21 21 21 20 18 17 18 20 20 22 24 25 27 29 30 32 33 35 37 38 40 41 43 44 45 47 48 50 51 53 54 55
23 23 23 22 22 21 21 21 21 22 23 22 22 20 19 20 20 21 22 22 23 25 26 28 29 31 32 34 36 37 39 40 42 43 45 46 47 49 51 53 54 56 57 59
24 24 24 24 23 23 22 23 23 23 23 23 22 21 21 22 22 23 23 24 25 27 29 30 32 33 34 36 37 39 41 42 44 46 47 49 50 52 54 55 57 59 61 63
25 25 25 25 25 24 24 24 24 24 24 24 22 22 22 23 23 23 24 25 27 29 30 32 33 35 36 38 40 42 44 45 47 48 50 52 54 55 57 59 61 62 64 66

GEFSCGP_500_meanwind_066.txt.gz
Wind_Speed
8 8 7 8 10 11 13 15 15 16 18 18 18 18 18 17 15 12 9 6 4 5 10 13 16 18 21 21 21 19 18 16 14 12 10 8 6 5 4 3 2 2 1 1
8 8 9 9 10 12 13 14 14 15 16 17 17 16 17 16 14 12 8 6 4 2 7 11 14 17 18 19 19 18 17 15 13 12 9 7 6 5 4 3 3 2 2 1
9 9 9 9 10 12 13 13 13 15 16 16 17 16 16 14 13 11 9 7 5 2 5 9 12 15 16 17 17 17 16 14 13 11 9 8 6 5 4 4 3 3 2 1
10 10 9 9 11 12 12 13 13 14 14 15 16 15 15 14 13 11 9 7 5 3 4 7 10 12 15 16 17 16 15 13 11 10 9 7 6 5 5 4 4 3 2 2
10 10 10 10 11 12 13 13 14 14 13 13 15 12 13 12 12 11 10 7 5 4 3 6 9 11 13 15 15 14 12 11 10 9 8 7 6 5 5 5 4 4 3 3
11 12 11 11 13 13 14 14 14 14 12 11 14 11 10 10 10 10 9 7 5 4 4 5 8 10 11 12 12 12 11 10 9 9 8 7 6 6 6 6 5 5 5 4
12 13 12 13 14 14 14 13 12 11 10 12 13 10 9 8 8 8 7 6 4 3 3 4 6 9 11 11 11 10 10 9 9 9 8 7 7 7 7 7 6 6 7 7
13 13 14 14 14 15 14 13 11 10 10 11 13 10 9 8 7 7 6 5 4 2 1 2 4 7 8 9 9 9 9 9 9 9 9 9 9 9 9 9 8 8 9 9
13 14 16 16 16 16 15 13 12 11 11 9 10 11 10 9 8 7 6 5 4 3 1 2 4 5 7 8 9 9 9 9 9 10 10 10 11 11 11 11 11 11 12 13
16 17 18 18 18 16 14 14 13 10 10 9 9 9 10 10 9 8 7 6 5 4 3 4 5 6 7 8 9 10 10 11 11 12 12 12 13 14 14 14 14 14 15 16
18 18 18 18 18 17 15 14 12 10 10 8 8 10 12 10 10 9 9 8 6 6 5 6 6 7 8 9 10 12 13 13 13 13 14 15 16 16 17 17 18 19 19 20
19 17 17 18 17 16 15 13 12 10 11 9 7 11 12 11 10 9 9 8 8 8 7 7 9 9 10 11 12 13 14 14 15 16 16 17 18 19 20 21 21 22 23 24
20 18 16 16 16 15 14 12 11 11 10 9 7 11 12 11 11 10 9 9 9 9 9 9 10 11 11 12 13 14 15 16 17 17 18 19 21 22 22 23 24 25 26 27
19 18 15 15 16 16 14 13 12 11 9 10 10 12 14 12 13 12 12 12 11 11 11 11 11 12 13 14 14 16 17 18 19 19 20 22 23 24 25 26 27 28 28 29
19 18 16 16 17 16 15 14 13 12 12 12 13 14 15 14 14 15 15 15 15 14 14 14 14 15 16 16 17 18 19 20 20 21 22 24 25 26 27 28 29 29 30 31
20 19 18 17 16 16 16 16 15 14 13 13 14 15 14 15 16 16 18 19 19 18 18 18 19 19 19 20 20 20 21 22 22 23 24 25 26 27 28 29 30 31 32 33
22 20 18 17 18 18 16 16 16 16 16 16 16 16 16 16 16 18 19 20 21 22 23 23 23 23 24 23 23 23 24 24 25 25 26 27 27 29 30 31 32 34 35 36
22 20 19 18 20 20 18 18 18 19 19 18 18 17 17 17 17 19 20 21 22 24 25 26 27 27 27 27 27 27 28 28 28 28 29 30 30 31 32 34 35 36 38 39
22 20 20 20 19 18 20 18 18 19 19 19 19 19 18 18 19 19 20 21 23 25 27 29 29 30 31 32 32 32 32 32 32 32 32 33 34 35 37 38 39 41 41 42
21 21 22 22 21 19 21 19 19 19 19 19 20 19 19 19 20 20 21 23 23 25 27 30 32 33 33 34 35 36 36 35 35 35 35 36 37 38 40 41 43 44 45 46
24 23 23 23 22 22 22 20 19 19 19 19 20 20 20 20 21 22 22 23 24 26 27 29 31 32 33 34 35 35 36 36 36 37 38 39 40 42 43 44 45 46 48 49
24 24 25 24 23 24 22 20 19 19 19 20 21 21 21 22 22 22 23 24 25 26 27 27 28 30 31 32 32 33 34 35 36 37 39 41 42 44 45 46 48 49 50 51
26 25 25 24 24 24 22 21 20 20 20 21 22 22 22 23 24 24 24 25 26 27 27 27 27 29 29 30 31 32 33 35 37 38 40 42 44 45 46 48 49 51 52 54
21 22 23 24 24 23 22 22 22 22 22 22 23 23 24 24 25 26 26 27 28 27 28 29 29 29 30 30 32 33 35 36 38 39 41 43 44 46 48 49 51 53 55 57
20 20 21 21 22 22 22 22 23 23 23 24 24 25 25 26 26 27 28 28 28 29 29 29 29 30 31 32 34 35 36 38 39 41 43 44 46 48 50 52 55 57 59 61
20 21 21 21 21 22 22 23 23 24 24 25 25 26 26 26 27 28 29 29 29 29 29 30 30 32 33 34 35 36 38 40 41 43 45 47 49 52 54 56 58 60 62 64